User: anonymous   Login
Location: Unspecified
(0.0000°N, 0.0000°E)
Time: 07:08:26
(UTC+00:00)
Language:

Vanguard 3 - Orbit

View from above orbital plane
View from above orbital plane
View from above satellite
View from above satellite

Ground track
Ground track

The orbit data is extracted from the following two-line orbital elements,

1    20U 59007A   17175.23621801 -.00000022 +00000-0 -24519-4 0  9998
2    20 033.3555 101.6965 1668890 249.7982 091.5897 11.55427420104572
Epoch (UTC): 24 June 2017 05:40:09
Eccentricity: 0.1668890
inclination: 33.3555°
perigee height: 507 km
apogee height: 3266 km
right ascension of ascending node: 101.6965°
argument of perigee: 249.7982°
revolutions per day: 11.55427420
mean anomaly at epoch: 91.5897°
orbit number at epoch: 10457

The dashed part of the orbit path shows where the satellite is in the earth's shadow,  

DLR